Time,TemperatureF,DewpointF,PressureIn,WindDirection,WindDirectionDegrees,WindSpeedMPH,WindSpeedGustMPH,Humidity,HourlyPrecipIn,Conditions,Clouds,dailyrainin,SolarRadiationWatts/m^2,SoftwareType,DateUTC
2013-01-12 00:00:00,52.0,47.0,-100.00,NNW,337,13.0,-999.0,81,-99.99,,,-99.99,0.000000,,2013-01-12 05:00:00,
2013-01-12 00:42:00,52.0,47.0,-100.00,NNW,337,13.0,-999.0,81,-99.99,,,-99.99,0.000000,,2013-01-12 05:42:00,
2013-01-12 00:52:00,52.0,47.0,-100.00,NNW,337,13.0,-999.0,81,-99.99,,,-99.99,0.000000,,2013-01-12 05:52:00,
2013-01-12 01:00:00,52.0,46.0,-100.00,NE,45,13.0,-999.0,81,-99.99,,,-99.99,0.000000,,2013-01-12 06:00:00,
2013-01-12 01:33:00,52.0,46.0,-100.00,NE,45,13.0,-999.0,81,-99.99,,,-99.99,0.000000,,2013-01-12 06:33:00,
2013-01-12 01:43:00,52.0,46.0,-100.00,NE,45,13.0,-999.0,81,-99.99,,,-99.99,0.000000,,2013-01-12 06:43:00,
2013-01-12 01:53:00,52.0,46.0,-100.00,NE,45,13.0,-999.0,81,-99.99,,,-99.99,0.000000,,2013-01-12 06:53:00,
2013-01-12 02:00:00,52.0,46.0,-100.00,East,90,12.0,-999.0,81,-99.99,,,-99.99,0.000000,,2013-01-12 07:00:00,
2013-01-12 02:32:00,52.0,46.0,-100.00,East,90,12.0,-999.0,81,-99.99,,,-99.99,0.000000,,2013-01-12 07:32:00,
2013-01-12 02:42:00,52.0,46.0,-100.00,East,90,12.0,-999.0,81,-99.99,,,-99.99,0.000000,,2013-01-12 07:42:00,
2013-01-12 02:53:00,52.0,46.0,-100.00,East,90,12.0,-999.0,81,-99.99,,,-99.99,0.000000,,2013-01-12 07:53:00,
2013-01-12 03:00:00,51.0,45.0,-100.00,SE,135,11.0,-999.0,80,-99.99,,,-99.99,0.000000,,2013-01-12 08:00:00,
2013-01-12 03:42:00,51.0,45.0,-100.00,SE,135,11.0,-999.0,80,-99.99,,,-99.99,0.000000,,2013-01-12 08:42:00,
2013-01-12 03:53:00,51.0,45.0,-100.00,SE,135,11.0,-999.0,80,-99.99,,,-99.99,0.000000,,2013-01-12 08:53:00,
2013-01-12 04:00:00,51.0,45.0,-100.00,South,180,12.0,-999.0,78,-99.99,,,-99.99,0.000000,,2013-01-12 09:00:00,
2013-01-12 04:43:00,51.0,45.0,-100.00,South,180,12.0,-999.0,78,-99.99,,,-99.99,0.000000,,2013-01-12 09:43:00,
2013-01-12 04:53:00,51.0,45.0,-100.00,South,180,12.0,-999.0,78,-99.99,,,-99.99,0.000000,,2013-01-12 09:53:00,
2013-01-12 05:00:00,51.0,45.0,-100.00,ESE,112,11.0,-999.0,78,-99.99,,,-99.99,0.000000,,2013-01-12 10:00:00,
2013-01-12 05:43:00,51.0,45.0,-100.00,ESE,112,11.0,-999.0,78,-99.99,,,-99.99,0.000000,,2013-01-12 10:43:00,
2013-01-12 05:52:00,51.0,45.0,-100.00,ESE,112,11.0,-999.0,78,-99.99,,,-99.99,0.000000,,2013-01-12 10:52:00,
2013-01-12 06:00:00,51.0,45.0,-100.00,East,90,9.0,-999.0,79,-99.99,,,-99.99,0.000000,,2013-01-12 11:00:00,
2013-01-12 06:43:00,51.0,45.0,-100.00,East,90,9.0,-999.0,79,-99.99,,,-99.99,0.000000,,2013-01-12 11:43:00,
2013-01-12 06:53:00,51.0,45.0,-100.00,East,90,9.0,-999.0,79,-99.99,,,-99.99,0.000000,,2013-01-12 11:53:00,
2013-01-12 07:00:00,51.0,44.0,-100.00,ESE,112,8.0,-999.0,79,-99.99,,,-99.99,0.000000,,2013-01-12 12:00:00,
2013-01-12 07:33:00,51.0,44.0,-100.00,ESE,112,8.0,-999.0,79,-99.99,,,-99.99,0.000000,,2013-01-12 12:33:00,
2013-01-12 07:43:00,51.0,44.0,-100.00,ESE,112,8.0,-999.0,79,-99.99,,,-99.99,0.000000,,2013-01-12 12:43:00,
2013-01-12 07:53:00,51.0,44.0,-100.00,ESE,112,8.0,-999.0,79,-99.99,,,-99.99,0.000000,,2013-01-12 12:53:00,
2013-01-12 08:00:00,50.0,45.0,-100.00,SE,135,9.0,-999.0,80,-99.99,,,-99.99,0.000000,,2013-01-12 13:00:00,
2013-01-12 08:33:00,50.0,45.0,-100.00,SE,135,9.0,-999.0,80,-99.99,,,-99.99,0.000000,,2013-01-12 13:33:00,
2013-01-12 08:43:00,50.0,45.0,-100.00,SE,135,9.0,-999.0,80,-99.99,,,-99.99,0.000000,,2013-01-12 13:43:00,
2013-01-12 08:53:00,50.0,45.0,-100.00,SE,135,9.0,-999.0,80,-99.99,,,-99.99,0.000000,,2013-01-12 13:53:00,
2013-01-12 09:00:00,50.0,45.0,-100.00,SSE,157,9.0,-999.0,81,-99.99,,,-99.99,10.440000,,2013-01-12 14:00:00,
2013-01-12 09:43:00,50.0,45.0,-100.00,SSE,157,9.0,-999.0,81,-99.99,,,-99.99,10.440000,,2013-01-12 14:43:00,
2013-01-12 09:53:00,50.0,45.0,-100.00,SSE,157,9.0,-999.0,81,-99.99,,,-99.99,10.440000,,2013-01-12 14:53:00,
2013-01-12 10:00:00,51.0,46.0,-100.00,South,180,8.0,-999.0,81,-99.99,,,-99.99,75.400002,,2013-01-12 15:00:00,
2013-01-12 10:33:00,51.0,46.0,-100.00,South,180,8.0,-999.0,81,-99.99,,,-99.99,75.400002,,2013-01-12 15:33:00,
2013-01-12 10:43:00,51.0,46.0,-100.00,South,180,8.0,-999.0,81,-99.99,,,-99.99,75.400002,,2013-01-12 15:43:00,
2013-01-12 10:53:00,51.0,46.0,-100.00,South,180,8.0,-999.0,81,-99.99,,,-99.99,75.400002,,2013-01-12 15:53:00,
2013-01-12 11:00:00,53.0,47.0,-100.00,SW,225,8.0,-999.0,79,-99.99,,,-99.99,176.320007,,2013-01-12 16:00:00,
2013-01-12 11:43:00,53.0,47.0,-100.00,SW,225,8.0,-999.0,79,-99.99,,,-99.99,176.320007,,2013-01-12 16:43:00,
2013-01-12 11:53:00,53.0,47.0,-100.00,SW,225,8.0,-999.0,79,-99.99,,,-99.99,176.320007,,2013-01-12 16:53:00,
2013-01-12 12:00:00,55.0,46.0,-100.00,WNW,292,10.0,-999.0,70,-99.99,,,-99.99,244.759995,,2013-01-12 17:00:00,
2013-01-12 12:33:00,55.0,46.0,-100.00,WNW,292,10.0,-999.0,70,-99.99,,,-99.99,244.759995,,2013-01-12 17:33:00,
2013-01-12 12:43:00,55.0,46.0,-100.00,WNW,292,10.0,-999.0,70,-99.99,,,-99.99,244.759995,,2013-01-12 17:43:00,
2013-01-12 12:53:00,55.0,46.0,-100.00,WNW,292,10.0,-999.0,70,-99.99,,,-99.99,244.759995,,2013-01-12 17:53:00,
2013-01-12 13:00:00,55.0,45.0,-100.00,NE,45,11.0,-999.0,70,-99.99,,,-99.99,206.479996,,2013-01-12 18:00:00,
2013-01-12 13:33:00,55.0,45.0,-100.00,NE,45,11.0,-999.0,70,-99.99,,,-99.99,206.479996,,2013-01-12 18:33:00,
2013-01-12 13:43:00,55.0,45.0,-100.00,NE,45,11.0,-999.0,70,-99.99,,,-99.99,206.479996,,2013-01-12 18:43:00,
2013-01-12 13:53:00,55.0,45.0,-100.00,NE,45,11.0,-999.0,70,-99.99,,,-99.99,206.479996,,2013-01-12 18:53:00,
2013-01-12 14:00:00,52.0,45.0,-100.00,East,90,8.0,-999.0,74,-99.99,,,-99.99,228.520004,,2013-01-12 19:00:00,
2013-01-12 14:43:00,52.0,45.0,-100.00,East,90,8.0,-999.0,74,-99.99,,,-99.99,228.520004,,2013-01-12 19:43:00,
2013-01-12 14:53:00,52.0,45.0,-100.00,East,90,8.0,-999.0,74,-99.99,,,-99.99,228.520004,,2013-01-12 19:53:00,
2013-01-12 15:00:00,50.0,40.0,-100.00,East,90,6.0,-999.0,70,-99.99,,,-99.99,174.000000,,2013-01-12 20:00:00,
2013-01-12 15:43:00,50.0,40.0,-100.00,East,90,6.0,-999.0,70,-99.99,,,-99.99,174.000000,,2013-01-12 20:43:00,
2013-01-12 15:53:00,50.0,40.0,-100.00,East,90,6.0,-999.0,70,-99.99,,,-99.99,174.000000,,2013-01-12 20:53:00,
2013-01-12 16:00:00,48.0,37.0,-100.00,East,90,4.0,-999.0,65,-99.99,,,-99.99,85.839996,,2013-01-12 21:00:00,
2013-01-12 16:43:00,48.0,37.0,-100.00,East,90,4.0,-999.0,65,-99.99,,,-99.99,85.839996,,2013-01-12 21:43:00,
2013-01-12 16:53:00,48.0,37.0,-100.00,East,90,4.0,-999.0,65,-99.99,,,-99.99,85.839996,,2013-01-12 21:53:00,
2013-01-12 17:00:00,45.0,35.0,-100.00,East,90,4.0,-999.0,67,-99.99,,,-99.99,23.200001,,2013-01-12 22:00:00,
2013-01-12 17:43:00,45.0,35.0,-100.00,East,90,4.0,-999.0,67,-99.99,,,-99.99,23.200001,,2013-01-12 22:43:00,
2013-01-12 17:53:00,45.0,35.0,-100.00,East,90,4.0,-999.0,67,-99.99,,,-99.99,23.200001,,2013-01-12 22:53:00,
2013-01-12 18:00:00,43.0,34.0,-100.00,East,90,3.0,-999.0,69,-99.99,,,-99.99,2.320000,,2013-01-12 23:00:00,
2013-01-12 18:33:00,43.0,34.0,-100.00,East,90,3.0,-999.0,69,-99.99,,,-99.99,2.320000,,2013-01-12 23:33:00,
2013-01-12 18:43:00,43.0,34.0,-100.00,East,90,3.0,-999.0,69,-99.99,,,-99.99,2.320000,,2013-01-12 23:43:00,
2013-01-12 18:53:00,43.0,34.0,-100.00,East,90,3.0,-999.0,69,-99.99,,,-99.99,2.320000,,2013-01-12 23:53:00,
2013-01-12 19:00:00,42.0,35.0,-100.00,East,90,4.0,-999.0,74,-99.99,,,-99.99,0.000000,,2013-01-13 00:00:00,
2013-01-12 19:33:00,42.0,35.0,-100.00,East,90,4.0,-999.0,74,-99.99,,,-99.99,0.000000,,2013-01-13 00:33:00,
2013-01-12 19:43:00,42.0,35.0,-100.00,East,90,4.0,-999.0,74,-99.99,,,-99.99,0.000000,,2013-01-13 00:43:00,
2013-01-12 19:53:00,42.0,35.0,-100.00,East,90,4.0,-999.0,74,-99.99,,,-99.99,0.000000,,2013-01-13 00:53:00,
2013-01-12 20:00:00,41.0,34.0,-100.00,East,90,5.0,-999.0,75,-99.99,,,-99.99,0.000000,,2013-01-13 01:00:00,
2013-01-12 20:43:00,41.0,34.0,-100.00,East,90,5.0,-999.0,75,-99.99,,,-99.99,0.000000,,2013-01-13 01:43:00,
2013-01-12 20:53:00,41.0,34.0,-100.00,East,90,5.0,-999.0,75,-99.99,,,-99.99,0.000000,,2013-01-13 01:53:00,
2013-01-12 21:00:00,41.0,34.0,-100.00,East,90,3.0,-999.0,75,-99.99,,,-99.99,0.000000,,2013-01-13 02:00:00,
2013-01-12 21:43:00,41.0,34.0,-100.00,East,90,3.0,-999.0,75,-99.99,,,-99.99,0.000000,,2013-01-13 02:43:00,
2013-01-12 21:53:00,41.0,34.0,-100.00,East,90,3.0,-999.0,75,-99.99,,,-99.99,0.000000,,2013-01-13 02:53:00,
2013-01-12 22:00:00,40.0,34.0,-100.00,East,90,3.0,-999.0,79,0.01,,,-99.99,0.000000,,2013-01-13 03:00:00,
2013-01-12 22:33:00,40.0,34.0,-100.00,East,90,3.0,-999.0,79,0.01,,,-99.99,0.000000,,2013-01-13 03:33:00,
2013-01-12 22:43:00,40.0,34.0,-100.00,East,90,3.0,-999.0,79,0.01,,,-99.99,0.000000,,2013-01-13 03:43:00,
2013-01-12 22:53:00,40.0,34.0,-100.00,East,90,3.0,-999.0,79,0.01,,,-99.99,0.000000,,2013-01-13 03:53:00,
2013-01-12 23:00:00,39.0,36.0,-100.00,ESE,112,7.0,-999.0,87,0.02,,,-99.99,0.000000,,2013-01-13 04:00:00,
2013-01-12 23:43:00,39.0,36.0,-100.00,ESE,112,7.0,-999.0,87,0.02,,,-99.99,0.000000,,2013-01-13 04:43:00,
2013-01-12 23:53:00,39.0,36.0,-100.00,ESE,112,7.0,-999.0,87,0.02,,,-99.99,0.000000,,2013-01-13 04:53:00,